Location: Las Vegas
(36.1750°N, 115.1360°W)
Time: 12:54:50
(UTC-07:00)

Envisat - Visible Passes

Search period start: 23 April 2019 00:00
Search period end: 03 May 2019 00:00
Orbit: 764 x 766 km, 98.2° (Epoch: 23 April)

Date Brightness Start Highest point End Pass type
(mag) Time Alt. Az. Time Alt. Az. Time Alt. Az.
23 Apr 5.3 20:11:06 10° SSW 20:15:15 25° W 20:19:26 10° NW visible
25 Apr 5.9 20:38:28 10° WSW 20:41:00 14° W 20:43:32 10° WNW visible
26 Apr 4.9 19:59:27 10° SSW 20:03:58 32° W 20:08:31 10° NNW visible
28 Apr 5.7 20:26:17 10° SW 20:29:40 18° W 20:33:05 10° NW visible
29 Apr 4.4 19:47:56 10° S 19:52:42 42° W 19:57:30 10° NNW visible
01 May 5.4 20:14:23 10° SSW 20:18:21 23° W 20:22:21 10° NW visible
